| time (UTC) | temp F | wind direction | speed MPH | gust MPH | rain 1hr in | rain 24hr in | rain mn in | humidity % | barometer mb |
| 20260510000105 | 78 | 116 | 4.0 | 15.0 | 0.00 | 0.11 | 0.02 | 78 | 1009.1 |
| 20260509235542 | 78 | 54 | 5.0 | 15.0 | 0.00 | 0.11 | 0.02 | 78 | 1009.1 |
| 20260509235042 | 78 | 118 | 6.0 | 15.0 | 0.00 | 0.11 | 0.02 | 78 | 1009.0 |
| 20260509234600 | 78 | 83 | 5.0 | 13.0 | 0.00 | 0.11 | 0.02 | 78 | 1009.0 |
| 20260509234042 | 78 | 86 | 6.0 | 13.0 | 0.00 | 0.11 | 0.02 | 78 | 1009.0 |
| 20260509233541 | 78 | 100 | 6.0 | 13.0 | 0.00 | 0.11 | 0.02 | 80 | 1009.0 |
| 20260509233052 | 78 | 93 | 3.0 | 6.0 | 0.00 | 0.11 | 0.02 | 83 | 1008.9 |
| 20260509232543 | 78 | 91 | 1.0 | 6.0 | 0.00 | 0.11 | 0.02 | 82 | 1008.8 |
| 20260509232042 | 78 | 109 | 2.0 | 6.0 | 0.00 | 0.11 | 0.02 | 81 | 1008.7 |
| 20260509231553 | 78 | 111 | 2.0 | 6.0 | 0.00 | 0.11 | 0.02 | 82 | 1008.8 |
| 20260509231042 | 78 | 83 | 1.0 | 3.0 | 0.00 | 0.11 | 0.02 | 82 | 1008.8 |
| 20260509230544 | 78 | 83 | 1.0 | 5.0 | 0.00 | 0.11 | 0.02 | 81 | 1008.8 |
| 20260509230053 | 78 | 101 | 1.0 | 5.0 | 0.00 | 0.11 | 0.02 | 81 | 1008.8 |
| 20260509225543 | 78 | 132 | 1.0 | 4.0 | 0.00 | 0.11 | 0.02 | 82 | 1008.8 |
| 20260509225038 | 78 | 83 | 1.0 | 4.0 | 0.00 | 0.11 | 0.02 | 83 | 1008.7 |
| 20260509224547 | 78 | 95 | 2.0 | 4.0 | 0.00 | 0.11 | 0.02 | 83 | 1008.8 |
| 20260509224042 | 78 | 107 | 2.0 | 4.0 | 0.00 | 0.11 | 0.02 | 82 | 1008.6 |
| 20260509223543 | 79 | 101 | 2.0 | 4.0 | 0.00 | 0.11 | 0.02 | 81 | 1008.7 |
| 20260509223101 | 79 | 93 | 2.0 | 3.0 | 0.00 | 0.11 | 0.02 | 82 | 1008.5 |
| 20260509222543 | 79 | 24 | 2.0 | 3.0 | 0.00 | 0.11 | 0.02 | 82 | 1008.6 |
| 20260509222042 | 79 | 62 | 1.0 | 2.0 | 0.00 | 0.11 | 0.02 | 81 | 1008.6 |
| 20260509221551 | 79 | 109 | 0.0 | 4.0 | 0.00 | 0.11 | 0.02 | 78 | 1008.7 |
| 20260509221041 | 79 | 143 | 1.0 | 4.0 | 0.00 | 0.11 | 0.02 | 78 | 1008.6 |
| 20260509220542 | 79 | 101 | 1.0 | 4.0 | 0.00 | 0.11 | 0.02 | 79 | 1008.6 |
| 20260509220051 | 79 | 116 | 1.0 | 4.0 | 0.00 | 0.11 | 0.02 | 79 | 1008.6 |
| 20260509215542 | 79 | 76 | 2.0 | 4.0 | 0.00 | 0.11 | 0.02 | 79 | 1008.5 |
| 20260509215042 | 79 | 95 | 2.0 | 5.0 | 0.00 | 0.11 | 0.02 | 77 | 1008.6 |
| 20260509214547 | 80 | 110 | 2.0 | 6.0 | 0.00 | 0.11 | 0.02 | 75 | 1008.6 |
| 20260509214042 | 80 | 136 | 2.0 | 7.0 | 0.00 | 0.11 | 0.02 | 75 | 1008.6 |
| 20260509213542 | 80 | 152 | 2.0 | 7.0 | 0.00 | 0.11 | 0.02 | 75 | 1008.6 |
| 20260509213054 | 80 | 195 | 3.0 | 7.0 | 0.00 | 0.11 | 0.02 | 75 | 1008.6 |
| 20260509212542 | 80 | 130 | 4.0 | 7.0 | 0.00 | 0.11 | 0.02 | 75 | 1008.8 |
| 20260509212042 | 80 | 113 | 2.0 | 6.0 | 0.00 | 0.11 | 0.02 | 76 | 1008.9 |
| 20260509211553 | 80 | 96 | 3.0 | 7.0 | 0.00 | 0.11 | 0.02 | 74 | 1008.8 |
| 20260509211043 | 81 | 107 | 3.0 | 7.0 | 0.00 | 0.11 | 0.02 | 74 | 1008.8 |
| 20260509210543 | 81 | 116 | 3.0 | 7.0 | 0.00 | 0.11 | 0.02 | 75 | 1009.0 |
| 20260509210100 | 81 | 127 | 3.0 | 7.0 | 0.00 | 0.11 | 0.02 | 73 | 1009.1 |
| 20260509205542 | 80 | 154 | 1.0 | 6.0 | 0.00 | 0.11 | 0.02 | 73 | 1009.1 |
| 20260509205042 | 80 | 96 | 3.0 | 7.0 | 0.00 | 0.11 | 0.02 | 73 | 1009.1 |
| 20260509204555 | 81 | 132 | 3.0 | 7.0 | 0.00 | 0.11 | 0.02 | 74 | 1009.3 |
| 20260509204042 | 81 | 122 | 3.0 | 7.0 | 0.00 | 0.11 | 0.02 | 73 | 1009.1 |
| 20260509203542 | 81 | 119 | 2.0 | 7.0 | 0.00 | 0.11 | 0.02 | 74 | 1009.2 |
| 20260509203055 | 81 | 113 | 3.0 | 9.0 | 0.00 | 0.11 | 0.02 | 74 | 1009.3 |
| 20260509202542 | 82 | 359 | 3.0 | 11.0 | 0.00 | 0.11 | 0.02 | 72 | 1009.4 |
| 20260509202042 | 83 | 111 | 3.0 | 12.0 | 0.00 | 0.11 | 0.02 | 72 | 1009.4 |
| 20260509201548 | 85 | 143 | 7.0 | 12.0 | 0.00 | 0.11 | 0.02 | 69 | 1009.4 |
| 20260509201041 | 83 | 138 | 6.0 | 11.0 | 0.00 | 0.11 | 0.02 | 73 | 1009.5 |
| 20260509200542 | 83 | 134 | 6.0 | 10.0 | 0.00 | 0.11 | 0.02 | 71 | 1009.5 |
| 20260509200106 | 82 | 47 | 1.0 | 6.0 | 0.00 | 0.11 | 0.02 | 70 | 1009.6 |
| 20260509195542 | 81 | 38 | 2.0 | 9.0 | 0.00 | 0.11 | 0.02 | 70 | 1009.5 |
| 20260509195041 | 83 | 255 | 3.0 | 9.0 | 0.00 | 0.11 | 0.02 | 69 | 1009.6 |
| 20260509194557 | 83 | 91 | 2.0 | 12.0 | 0.00 | 0.11 | 0.02 | 72 | 1009.7 |
| 20260509194042 | 83 | 219 | 6.0 | 12.0 | 0.00 | 0.11 | 0.02 | 73 | 1009.8 |
| 20260509193542 | 82 | 334 | 4.0 | 10.0 | 0.00 | 0.11 | 0.02 | 74 | 1009.7 |
| 20260509193056 | 81 | 244 | 3.0 | 10.0 | 0.00 | 0.11 | 0.02 | 73 | 1009.8 |
| 20260509192542 | 81 | 255 | 5.0 | 9.0 | 0.00 | 0.11 | 0.02 | 72 | 1009.9 |
| 20260509192042 | 80 | 205 | 4.0 | 8.0 | 0.00 | 0.11 | 0.02 | 77 | 1010.0 |
| 20260509191551 | 80 | 255 | 4.0 | 8.0 | 0.00 | 0.11 | 0.02 | 76 | 1010.0 |
| 20260509191041 | 79 | 202 | 2.0 | 8.0 | 0.00 | 0.11 | 0.02 | 77 | 1010.1 |
| 20260509190541 | 79 | 147 | 4.0 | 7.0 | 0.00 | 0.11 | 0.02 | 78 | 1010.2 |
| 20260509190053 | 79 | 245 | 1.0 | 6.0 | 0.00 | 0.11 | 0.02 | 76 | 1010.2 |
| 20260509185545 | 80 | 74 | 2.0 | 6.0 | 0.00 | 0.11 | 0.02 | 76 | 1010.2 |
| 20260509185043 | 81 | 168 | 2.0 | 6.0 | 0.00 | 0.11 | 0.02 | 78 | 1010.3 |
| 20260509184601 | 79 | 222 | 3.0 | 6.0 | 0.00 | 0.11 | 0.02 | 78 | 1010.3 |
| 20260509184042 | 78 | 224 | 2.0 | 5.0 | 0.00 | 0.11 | 0.02 | 79 | 1010.3 |
| 20260509183542 | 78 | 192 | 1.0 | 10.0 | 0.00 | 0.11 | 0.02 | 80 | 1010.3 |
| 20260509183051 | 78 | 160 | 3.0 | 10.0 | 0.00 | 0.11 | 0.02 | 81 | 1010.3 |
| 20260509182543 | 77 | 120 | 2.0 | 7.0 | 0.00 | 0.11 | 0.02 | 80 | 1010.3 |
| 20260509182042 | 78 | 226 | 3.0 | 11.0 | 0.00 | 0.11 | 0.02 | 80 | 1010.3 |
| 20260509181621 | 78 | 161 | 4.0 | 11.0 | 0.00 | 0.11 | 0.02 | 81 | 1010.4 |
| 20260509181043 | 77 | 165 | 2.0 | 10.0 | 0.00 | 0.11 | 0.02 | 82 | 1010.5 |
| 20260509180541 | 77 | 66 | 3.0 | 10.0 | 0.00 | 0.11 | 0.02 | 81 | 1010.4 |
| 20260509180100 | 77 | 226 | 5.0 | 9.0 | 0.00 | 0.11 | 0.02 | 81 | 1010.5 |
| 20260509175542 | 77 | 242 | 5.0 | 10.0 | 0.00 | 0.11 | 0.02 | 79 | 1010.5 |
| 20260509175042 | 78 | 222 | 5.0 | 10.0 | 0.00 | 0.11 | 0.02 | 79 | 1010.6 |
| 20260509174558 | 78 | 165 | 3.0 | 10.0 | 0.00 | 0.11 | 0.02 | 79 | 1010.6 |
| 20260509174042 | 80 | 219 | 4.0 | 9.0 | 0.00 | 0.11 | 0.02 | 75 | 1010.7 |
| 20260509173542 | 78 | 107 | 3.0 | 9.0 | 0.00 | 0.11 | 0.02 | 80 | 1010.6 |
| 20260509173102 | 77 | 148 | 1.0 | 7.0 | 0.00 | 0.11 | 0.02 | 82 | 1010.6 |
| 20260509172542 | 77 | 76 | 4.0 | 7.0 | 0.00 | 0.11 | 0.02 | 81 | 1010.6 |
| 20260509172043 | 77 | 95 | 2.0 | 6.0 | 0.00 | 0.11 | 0.02 | 82 | 1010.6 |
| 20260509171555 | 77 | 202 | 1.0 | 7.0 | 0.00 | 0.11 | 0.02 | 79 | 1010.8 |
| 20260509171042 | 78 | 255 | 2.0 | 8.0 | 0.00 | 0.11 | 0.02 | 79 | 1010.7 |
| 20260509170543 | 79 | 168 | 4.0 | 8.0 | 0.00 | 0.11 | 0.02 | 79 | 1010.7 |
| 20260509170053 | 79 | 134 | 4.0 | 8.0 | 0.00 | 0.11 | 0.02 | 84 | 1010.7 |
| 20260509165541 | 77 | 105 | 1.0 | 8.0 | 0.00 | 0.11 | 0.02 | 83 | 1010.8 |
| 20260509165043 | 76 | 282 | 1.0 | 11.0 | 0.00 | 0.11 | 0.02 | 82 | 1010.7 |
| 20260509164553 | 77 | 103 | 3.0 | 11.0 | 0.00 | 0.11 | 0.02 | 83 | 1010.8 |
| 20260509164041 | 78 | 39 | 7.0 | 11.0 | 0.00 | 0.11 | 0.02 | 83 | 1010.7 |
| 20260509163541 | 76 | 165 | 4.0 | 9.0 | 0.00 | 0.11 | 0.02 | 83 | 1010.8 |
| 20260509163053 | 75 | 90 | 3.0 | 9.0 | 0.00 | 0.11 | 0.02 | 84 | 1010.7 |
| 20260509162542 | 75 | 57 | 5.0 | 9.0 | 0.00 | 0.11 | 0.02 | 85 | 1010.7 |
| 20260509162044 | 74 | 12 | 1.0 | 5.0 | 0.00 | 0.11 | 0.02 | 85 | 1010.8 |
| 20260509161549 | 74 | 138 | 2.0 | 5.0 | 0.00 | 0.11 | 0.02 | 85 | 1010.9 |
| 20260509161041 | 74 | 229 | 2.0 | 5.0 | 0.00 | 0.11 | 0.02 | 84 | 1011.0 |
| 20260509160542 | 74 | 211 | 2.0 | 7.0 | 0.00 | 0.11 | 0.02 | 85 | 1010.8 |
| 20260509160057 | 74 | 328 | 2.0 | 7.0 | 0.00 | 0.11 | 0.02 | 86 | 1010.9 |
| 20260509155543 | 74 | 328 | 1.0 | 5.0 | 0.00 | 0.11 | 0.02 | 86 | 1010.9 |
| 20260509155041 | 73 | 186 | 1.0 | 5.0 | 0.00 | 0.11 | 0.02 | 86 | 1010.8 |
| 20260509154549 | 73 | 136 | 1.0 | 7.0 | 0.00 | 0.11 | 0.02 | 86 | 1010.8 |
| 20260509154042 | 73 | 276 | 2.0 | 7.0 | 0.00 | 0.11 | 0.02 | 86 | 1010.8 |
| 20260509153541 | 73 | 269 | 4.0 | 7.0 | 0.00 | 0.11 | 0.02 | 86 | 1010.9 |
| 20260509153053 | 73 | 244 | 3.0 | 9.0 | 0.00 | 0.11 | 0.02 | 86 | 1010.9 |
| 20260509152541 | 73 | 288 | 5.0 | 10.0 | 0.00 | 0.11 | 0.02 | 86 | 1010.9 |
| 20260509152042 | 73 | 286 | 5.0 | 10.0 | 0.00 | 0.11 | 0.02 | 87 | 1010.8 |
| 20260509151556 | 72 | 309 | 2.0 | 8.0 | 0.00 | 0.11 | 0.02 | 87 | 1010.9 |
| 20260509151042 | 72 | 284 | 2.0 | 6.0 | 0.00 | 0.11 | 0.02 | 88 | 1010.9 |
| 20260509150541 | 72 | 255 | 2.0 | 7.0 | 0.00 | 0.11 | 0.02 | 89 | 1010.9 |
| 20260509150052 | 72 | 272 | 3.0 | 8.0 | 0.00 | 0.11 | 0.02 | 89 | 1011.0 |
| 20260509145542 | 72 | 288 | 2.0 | 10.0 | 0.00 | 0.11 | 0.02 | 90 | 1011.0 |
| 20260509145043 | 72 | 328 | 4.0 | 10.0 | 0.00 | 0.11 | 0.02 | 90 | 1011.0 |
| 20260509144606 | 71 | 6 | 3.0 | 8.0 | 0.00 | 0.11 | 0.02 | 91 | 1010.9 |
| 20260509144041 | 71 | 276 | 2.0 | 8.0 | 0.00 | 0.11 | 0.02 | 91 | 1011.0 |
| 20260509143542 | 71 | 269 | 3.0 | 8.0 | 0.00 | 0.11 | 0.02 | 92 | 1011.1 |
| 20260509143116 | 71 | 240 | 4.0 | 9.0 | 0.00 | 0.11 | 0.02 | 92 | 1011.2 |
| 20260509142541 | 71 | 235 | 4.0 | 9.0 | 0.00 | 0.11 | 0.02 | 93 | 1011.1 |
| 20260509142041 | 70 | 240 | 4.0 | 11.0 | 0.00 | 0.11 | 0.02 | 93 | 1011.1 |
| 20260509141553 | 70 | 179 | 4.0 | 11.0 | 0.00 | 0.11 | 0.02 | 93 | 1011.0 |
| 20260509141042 | 70 | 251 | 5.0 | 11.0 | 0.00 | 0.11 | 0.02 | 94 | 1011.0 |
| 20260509140543 | 69 | 242 | 5.0 | 10.0 | 0.00 | 0.11 | 0.02 | 94 | 1011.0 |
| 20260509140100 | 69 | 249 | 4.0 | 10.0 | 0.00 | 0.11 | 0.02 | 94 | 1011.2 |
| 20260509135546 | 69 | 284 | 4.0 | 9.0 | 0.00 | 0.11 | 0.02 | 94 | 1011.1 |
| 20260509135046 | 69 | 242 | 2.0 | 7.0 | 0.00 | 0.11 | 0.02 | 94 | 1011.1 |
| 20260509134609 | 68 | 265 | 3.0 | 8.0 | 0.00 | 0.11 | 0.02 | 94 | 1011.0 |
| 20260509134043 | 68 | 303 | 4.0 | 8.0 | 0.00 | 0.11 | 0.02 | 94 | 1011.1 |
| 20260509133544 | 68 | 302 | 3.0 | 7.0 | 0.00 | 0.11 | 0.02 | 94 | 1011.0 |
| 20260509133050 | 68 | 249 | 2.0 | 7.0 | 0.00 | 0.11 | 0.02 | 94 | 1011.0 |
| 20260509132543 | 67 | 211 | 3.0 | 7.0 | 0.00 | 0.11 | 0.02 | 94 | 1010.8 |
| 20260509132046 | 67 | 229 | 2.0 | 5.0 | 0.00 | 0.11 | 0.02 | 94 | 1010.8 |
| 20260509131550 | 67 | 237 | 2.0 | 5.0 | 0.00 | 0.11 | 0.02 | 94 | 1010.7 |
| 20260509131042 | 66 | 255 | 2.0 | 5.0 | 0.00 | 0.11 | 0.02 | 94 | 1010.9 |
| 20260509130543 | 66 | 211 | 1.0 | 4.0 | 0.00 | 0.11 | 0.02 | 94 | 1010.9 |
| 20260509130058 | 66 | 168 | 1.0 | 5.0 | 0.00 | 0.11 | 0.02 | 94 | 1010.8 |
| 20260509125543 | 66 | 0 | 0.0 | 5.0 | 0.00 | 0.11 | 0.02 | 94 | 1010.9 |
| 20260509125042 | 66 | 139 | 1.0 | 9.0 | 0.00 | 0.11 | 0.02 | 93 | 1010.9 |
| 20260509124555 | 66 | 150 | 3.0 | 9.0 | 0.00 | 0.11 | 0.02 | 93 | 1011.0 |
| 20260509124044 | 65 | 174 | 5.0 | 9.0 | 0.00 | 0.11 | 0.02 | 93 | 1011.1 |
| 20260509123545 | 65 | 127 | 4.0 | 9.0 | 0.00 | 0.11 | 0.02 | 93 | 1011.0 |
| 20260509123114 | 65 | 262 | 3.0 | 9.0 | 0.00 | 0.11 | 0.02 | 93 | 1011.0 |
| 20260509122543 | 65 | 149 | 5.0 | 9.0 | 0.00 | 0.11 | 0.02 | 93 | 1010.9 |
| 20260509122042 | 65 | 186 | 4.0 | 8.0 | 0.00 | 0.11 | 0.02 | 93 | 1010.8 |
| 20260509121611 | 65 | 140 | 4.0 | 8.0 | 0.00 | 0.11 | 0.02 | 93 | 1010.8 |
| 20260509121048 | 65 | 150 | 2.0 | 5.0 | 0.00 | 0.11 | 0.02 | 93 | 1010.8 |
| 20260509120543 | 65 | 143 | 2.0 | 5.0 | 0.00 | 0.11 | 0.02 | 93 | 1010.7 |
| 20260509120107 | 65 | 143 | 0.0 | 4.0 | 0.00 | 0.11 | 0.02 | 93 | 1010.6 |
| 20260509115544 | 65 | 168 | 1.0 | 4.0 | 0.00 | 0.11 | 0.02 | 93 | 1010.4 |
| 20260509115042 | 65 | 159 | 1.0 | 3.0 | 0.00 | 0.11 | 0.02 | 93 | 1010.3 |
| 20260509114555 | 65 | 152 | 0.0 | 4.0 | 0.00 | 0.11 | 0.02 | 93 | 1010.2 |
| 20260509114047 | 65 | 139 | 1.0 | 4.0 | 0.00 | 0.11 | 0.02 | 93 | 1010.1 |
| 20260509113546 | 65 | 152 | 2.0 | 4.0 | 0.00 | 0.11 | 0.02 | 93 | 1010.0 |
| 20260509113049 | 65 | 109 | 0.0 | 4.0 | 0.00 | 0.11 | 0.02 | 92 | 1010.0 |
| 20260509112542 | 65 | 0 | 0.0 | 7.0 | 0.00 | 0.11 | 0.02 | 92 | 1009.8 |
| 20260509112042 | 65 | 24 | 1.0 | 9.0 | 0.00 | 0.11 | 0.02 | 92 | 1009.8 |
| 20260509111602 | 65 | 123 | 4.0 | 10.0 | 0.00 | 0.11 | 0.02 | 92 | 1009.7 |
| 20260509111043 | 65 | 155 | 4.0 | 10.0 | 0.02 | 0.11 | 0.02 | 92 | 1009.6 |
| 20260509110544 | 65 | 148 | 5.0 | 11.0 | 0.02 | 0.11 | 0.02 | 92 | 1009.6 |
| 20260509110054 | 65 | 152 | 6.0 | 11.0 | 0.02 | 0.11 | 0.02 | 92 | 1009.6 |
| 20260509105543 | 65 | 154 | 5.0 | 10.0 | 0.02 | 0.11 | 0.02 | 92 | 1009.6 |
| 20260509105041 | 65 | 163 | 5.0 | 10.0 | 0.02 | 0.11 | 0.02 | 92 | 1009.7 |
| 20260509104551 | 65 | 148 | 4.0 | 8.0 | 0.02 | 0.11 | 0.02 | 92 | 1009.6 |
| 20260509104041 | 65 | 168 | 3.0 | 6.0 | 0.02 | 0.11 | 0.02 | 92 | 1009.5 |
| 20260509103540 | 65 | 161 | 2.0 | 4.0 | 0.02 | 0.11 | 0.02 | 92 | 1009.5 |
| 20260509103101 | 65 | 0 | 0.0 | 5.0 | 0.02 | 0.11 | 0.02 | 92 | 1009.5 |
| 20260509102542 | 65 | 359 | 1.0 | 5.0 | 0.02 | 0.11 | 0.02 | 92 | 1009.5 |
| 20260509102040 | 65 | 0 | 3.0 | 6.0 | 0.02 | 0.11 | 0.02 | 92 | 1009.3 |
| 20260509101620 | 65 | 150 | 4.0 | 6.0 | 0.02 | 0.11 | 0.02 | 92 | 1009.3 |
| 20260509101042 | 65 | 168 | 3.0 | 7.0 | 0.00 | 0.09 | 0.00 | 92 | 1009.5 |
| 20260509100545 | 65 | 183 | 4.0 | 8.0 | 0.00 | 0.09 | 0.00 | 92 | 1009.5 |
| 20260509100057 | 65 | 161 | 4.0 | 8.0 | 0.00 | 0.09 | 0.00 | 92 | 1009.5 |
| 20260509095541 | 64 | 177 | 3.0 | 7.0 | 0.00 | 0.09 | 0.00 | 92 | 1009.6 |
| 20260509095042 | 64 | 147 | 4.0 | 7.0 | 0.00 | 0.09 | 0.00 | 92 | 1009.5 |
| 20260509094556 | 64 | 150 | 3.0 | 7.0 | 0.00 | 0.09 | 0.00 | 92 | 1009.6 |
| 20260509094042 | 64 | 130 | 3.0 | 7.0 | 0.00 | 0.09 | 0.00 | 92 | 1009.7 |
| 20260509093542 | 64 | 134 | 3.0 | 6.0 | 0.00 | 0.09 | 0.00 | 92 | 1009.7 |
| 20260509093059 | 64 | 136 | 3.0 | 7.0 | 0.00 | 0.09 | 0.00 | 92 | 1009.8 |
| 20260509092541 | 64 | 119 | 4.0 | 7.0 | 0.00 | 0.09 | 0.00 | 92 | 1009.9 |
| 20260509092041 | 64 | 137 | 4.0 | 7.0 | 0.00 | 0.09 | 0.00 | 92 | 1009.8 |
| 20260509091602 | 64 | 159 | 5.0 | 7.0 | 0.00 | 0.09 | 0.00 | 92 | 1009.9 |
| 20260509091043 | 64 | 154 | 4.0 | 7.0 | 0.00 | 0.09 | 0.00 | 92 | 1009.8 |
| 20260509090543 | 64 | 157 | 4.0 | 7.0 | 0.00 | 0.09 | 0.00 | 92 | 1009.8 |
| 20260509085539 | 64 | 174 | 2.0 | 6.0 | 0.00 | 0.09 | 0.00 | 91 | 1009.7 |
| 20260509085041 | 64 | 152 | 0.0 | 2.0 | 0.00 | 0.09 | 0.00 | 91 | 1009.6 |
| 20260509084555 | 64 | 0 | 1.0 | 4.0 | 0.00 | 0.09 | 0.00 | 91 | 1009.6 |
| 20260509084045 | 64 | 148 | 1.0 | 4.0 | 0.00 | 0.09 | 0.00 | 91 | 1009.5 |
| 20260509083543 | 64 | 127 | 0.0 | 4.0 | 0.00 | 0.09 | 0.00 | 91 | 1009.5 |
| 20260509083054 | 64 | 0 | 0.0 | 9.0 | 0.00 | 0.09 | 0.00 | 91 | 1009.4 |
| 20260509082541 | 64 | 130 | 2.0 | 9.0 | 0.00 | 0.09 | 0.00 | 91 | 1009.4 |
| 20260509082041 | 64 | 157 | 5.0 | 8.0 | 0.00 | 0.09 | 0.00 | 91 | 1009.3 |
| 20260509081559 | 64 | 132 | 1.0 | 6.0 | 0.00 | 0.09 | 0.00 | 91 | 1009.5 |
| 20260509081042 | 64 | 168 | 3.0 | 6.0 | 0.00 | 0.09 | 0.00 | 91 | 1009.5 |
| 20260509080540 | 64 | 168 | 4.0 | 6.0 | 0.00 | 0.09 | 0.00 | 91 | 1009.4 |
| 20260509080050 | 64 | 134 | 0.0 | 3.0 | 0.00 | 0.09 | 0.00 | 90 | 1009.5 |
| 20260509075543 | 64 | 299 | 1.0 | 4.0 | 0.00 | 0.09 | 0.00 | 90 | 1009.7 |
| 20260509075041 | 64 | 309 | 1.0 | 7.0 | 0.00 | 0.09 | 0.00 | 90 | 1009.7 |
| 20260509074551 | 64 | 95 | 2.0 | 7.0 | 0.00 | 0.09 | 0.00 | 90 | 1009.7 |
| 20260509074040 | 64 | 131 | 3.0 | 5.0 | 0.00 | 0.09 | 0.00 | 90 | 1009.8 |
| 20260509073545 | 64 | 148 | 0.0 | 4.0 | 0.00 | 0.09 | 0.00 | 90 | 1009.8 |
| 20260509073101 | 65 | 41 | 1.0 | 4.0 | 0.00 | 0.09 | 0.00 | 90 | 1009.6 |
| 20260509072543 | 65 | 49 | 2.0 | 8.0 | 0.00 | 0.09 | 0.00 | 90 | 1009.6 |
| 20260509072040 | 65 | 58 | 3.0 | 8.0 | 0.00 | 0.09 | 0.00 | 90 | 1009.6 |
| 20260509071553 | 65 | 51 | 3.0 | 6.0 | 0.00 | 0.09 | 0.00 | 90 | 1009.6 |
| 20260509071039 | 65 | 58 | 2.0 | 6.0 | 0.00 | 0.09 | 0.00 | 90 | 1009.8 |
| 20260509070540 | 65 | 66 | 2.0 | 6.0 | 0.00 | 0.09 | 0.00 | 90 | 1010.0 |
| 20260509070054 | 65 | 83 | 1.0 | 8.0 | 0.00 | 0.09 | 0.00 | 90 | 1009.9 |
| 20260509065541 | 65 | 39 | 4.0 | 9.0 | 0.00 | 0.09 | 0.00 | 90 | 1010.0 |
| 20260509065042 | 65 | 53 | 3.0 | 9.0 | 0.00 | 0.09 | 0.00 | 90 | 1009.9 |
| 20260509064601 | 65 | 57 | 4.0 | 7.0 | 0.00 | 0.09 | 0.00 | 90 | 1010.1 |
| 20260509064041 | 65 | 89 | 4.0 | 7.0 | 0.00 | 0.09 | 0.00 | 90 | 1010.2 |
| 20260509063540 | 65 | 66 | 3.0 | 10.0 | 0.00 | 0.09 | 0.00 | 90 | 1010.2 |
| 20260509063050 | 65 | 51 | 5.0 | 10.0 | 0.00 | 0.09 | 0.00 | 90 | 1010.6 |
| 20260509062541 | 65 | 40 | 5.0 | 10.0 | 0.00 | 0.09 | 0.00 | 90 | 1010.6 |
| 20260509062040 | 65 | 44 | 4.0 | 10.0 | 0.00 | 0.09 | 0.00 | 90 | 1010.5 |
| 20260509061547 | 65 | 24 | 2.0 | 13.0 | 0.00 | 0.09 | 0.00 | 90 | 1010.1 |
| 20260509061042 | 65 | 195 | 4.0 | 14.0 | 0.00 | 0.09 | 0.00 | 90 | 1010.0 |
| 20260509060541 | 65 | 165 | 7.0 | 15.0 | 0.00 | 0.09 | 0.00 | 90 | 1010.0 |
| 20260509060056 | 65 | 180 | 6.0 | 16.0 | 0.00 | 0.09 | 0.00 | 91 | 1010.2 |
| 20260509055544 | 65 | 168 | 7.0 | 16.0 | 0.00 | 0.09 | 0.00 | 91 | 1010.4 |
| 20260509055041 | 64 | 185 | 7.0 | 15.0 | 0.00 | 0.09 | 0.00 | 91 | 1010.4 |
| 20260509054600 | 64 | 105 | 5.0 | 15.0 | 0.00 | 0.09 | 0.00 | 91 | 1010.9 |
| 20260509054041 | 64 | 129 | 7.0 | 15.0 | 0.00 | 0.09 | 0.00 | 91 | 1010.7 |
| 20260509053541 | 64 | 152 | 7.0 | 13.0 | 0.00 | 0.09 | 0.00 | 91 | 1010.8 |
| 20260509053055 | 64 | 148 | 6.0 | 13.0 | 0.00 | 0.09 | 0.00 | 92 | 1010.9 |
| 20260509052540 | 64 | 157 | 5.0 | 11.0 | 0.00 | 0.09 | 0.00 | 92 | 1010.9 |
| 20260509052040 | 64 | 198 | 3.0 | 6.0 | 0.00 | 0.09 | 0.00 | 92 | 1010.7 |
| 20260509051546 | 64 | 183 | 2.0 | 7.0 | 0.01 | 0.09 | 0.00 | 92 | 1010.7 |
| 20260509051044 | 64 | 66 | 2.0 | 9.0 | 0.09 | 0.09 | 0.00 | 91 | 1010.7 |
| 20260509050541 | 65 | 92 | 4.0 | 9.0 | 0.09 | 0.09 | 0.00 | 92 | 1010.9 |
| 20260509050046 | 65 | 136 | 5.0 | 8.0 | 0.09 | 0.09 | 0.00 | 91 | 1011.3 |
| 20260509045540 | 65 | 113 | 2.0 | 6.0 | 0.09 | 0.09 | 0.09 | 91 | 1011.7 |
| 20260509045044 | 65 | 168 | 3.0 | 6.0 | 0.09 | 0.09 | 0.09 | 91 | 1011.7 |
| 20260509044551 | 64 | 224 | 3.0 | 10.0 | 0.09 | 0.09 | 0.09 | 91 | 1011.8 |
| 20260509044040 | 64 | 0 | 3.0 | 10.0 | 0.09 | 0.09 | 0.09 | 91 | 1011.6 |
| 20260509043543 | 64 | 146 | 3.0 | 11.0 | 0.09 | 0.09 | 0.09 | 91 | 1011.1 |
| 20260509043047 | 65 | 75 | 2.0 | 11.0 | 0.09 | 0.09 | 0.09 | 90 | 1011.1 |
| 20260509042541 | 65 | 96 | 4.0 | 7.0 | 0.09 | 0.09 | 0.09 | 89 | 1011.0 |
| 20260509042043 | 65 | 83 | 3.0 | 7.0 | 0.09 | 0.09 | 0.09 | 88 | 1011.8 |
| 20260509041615 | 66 | 109 | 3.0 | 8.0 | 0.07 | 0.07 | 0.07 | 86 | 1011.9 |
| 20260509041041 | 66 | 83 | 3.0 | 8.0 | 0.00 | 0.00 | 0.00 | 85 | 1012.1 |
| 20260509040540 | 66 | 83 | 3.0 | 7.0 | 0.00 | 0.00 | 0.00 | 84 | 1011.9 |
| 20260509040046 | 66 | 33 | 1.0 | 9.0 | 0.00 | 0.00 | 0.00 | 83 | 1011.5 |
| 20260509035540 | 67 | 24 | 2.0 | 9.0 | 0.00 | 0.00 | 0.00 | 82 | 1011.6 |
| 20260509035040 | 67 | 47 | 4.0 | 7.0 | 0.00 | 0.00 | 0.00 | 82 | 1011.4 |
| 20260509034544 | 67 | 36 | 3.0 | 5.0 | 0.00 | 0.00 | 0.00 | 80 | 1011.4 |
| 20260509034045 | 68 | 0 | 0.0 | 13.0 | 0.00 | 0.00 | 0.00 | 78 | 1011.0 |
| 20260509033543 | 68 | 255 | 3.0 | 13.0 | 0.00 | 0.00 | 0.00 | 78 | 1011.0 |
| 20260509033052 | 68 | 168 | 7.0 | 13.0 | 0.00 | 0.00 | 0.00 | 78 | 1009.7 |
| 20260509032544 | 68 | 184 | 4.0 | 13.0 | 0.00 | 0.00 | 0.00 | 77 | 1009.5 |
| 20260509032044 | 68 | 215 | 6.0 | 14.0 | 0.00 | 0.00 | 0.00 | 77 | 1009.3 |
| 20260509031555 | 68 | 163 | 7.0 | 18.0 | 0.00 | 0.00 | 0.00 | 77 | 1008.8 |
| 20260509031041 | 68 | 163 | 8.0 | 18.0 | 0.00 | 0.00 | 0.00 | 78 | 1008.6 |
| 20260509030543 | 68 | 152 | 7.0 | 16.0 | 0.00 | 0.00 | 0.00 | 79 | 1008.7 |
| 20260509030054 | 68 | 180 | 10.0 | 16.0 | 0.00 | 0.00 | 0.00 | 80 | 1008.6 |
| 20260509025540 | 68 | 172 | 11.0 | 16.0 | 0.00 | 0.00 | 0.00 | 79 | 1009.0 |
| 20260509025041 | 69 | 123 | 5.0 | 12.0 | 0.00 | 0.00 | 0.00 | 78 | 1009.5 |
| 20260509024549 | 69 | 299 | 4.0 | 8.0 | 0.00 | 0.00 | 0.00 | 78 | 1010.8 |
| 20260509024040 | 68 | 255 | 2.0 | 7.0 | 0.00 | 0.00 | 0.00 | 80 | 1010.0 |
| 20260509023541 | 67 | 178 | 3.0 | 7.0 | 0.00 | 0.00 | 0.00 | 81 | 1009.9 |
| 20260509023106 | 67 | 134 | 4.0 | 7.0 | 0.00 | 0.00 | 0.00 | 83 | 1009.8 |
| 20260509022543 | 67 | 124 | 2.0 | 5.0 | 0.00 | 0.00 | 0.00 | 83 | 1010.2 |
| 20260509022043 | 66 | 83 | 1.0 | 4.0 | 0.00 | 0.00 | 0.00 | 83 | 1010.3 |
| 20260509021552 | 66 | 78 | 2.0 | 3.0 | 0.00 | 0.00 | 0.00 | 83 | 1010.0 |
| 20260509021044 | 66 | 83 | 1.0 | 3.0 | 0.00 | 0.00 | 0.00 | 83 | 1009.8 |
| 20260509020543 | 66 | 127 | 1.0 | 4.0 | 0.00 | 0.00 | 0.00 | 82 | 1009.7 |
| 20260509020056 | 66 | 113 | 1.0 | 4.0 | 0.00 | 0.00 | 0.00 | 82 | 1009.7 |
| 20260509015543 | 66 | 127 | 1.0 | 3.0 | 0.00 | 0.00 | 0.00 | 81 | 1009.5 |
| 20260509015044 | 66 | 143 | 2.0 | 3.0 | 0.00 | 0.00 | 0.00 | 80 | 1009.4 |
| 20260509014550 | 67 | 131 | 1.0 | 3.0 | 0.00 | 0.00 | 0.00 | 81 | 1009.4 |
| 20260509014041 | 67 | 98 | 1.0 | 3.0 | 0.00 | 0.00 | 0.00 | 81 | 1009.4 |
| 20260509013543 | 67 | 109 | 2.0 | 3.0 | 0.00 | 0.00 | 0.00 | 80 | 1009.3 |
| 20260509013055 | 68 | 75 | 1.0 | 3.0 | 0.00 | 0.00 | 0.00 | 79 | 1009.3 |
| 20260509012542 | 68 | 70 | 1.0 | 3.0 | 0.00 | 0.00 | 0.00 | 79 | 1009.3 |
| 20260509012042 | 68 | 58 | 1.0 | 3.0 | 0.00 | 0.00 | 0.00 | 77 | 1009.2 |
| 20260509011555 | 69 | 70 | 1.0 | 3.0 | 0.00 | 0.00 | 0.00 | 76 | 1009.1 |
| 20260509011043 | 70 | 75 | 0.0 | 3.0 | 0.00 | 0.00 | 0.00 | 74 | 1009.0 |
| 20260509010544 | 71 | 0 | 0.0 | 4.0 | 0.00 | 0.00 | 0.00 | 72 | 1008.9 |
| 20260509010055 | 71 | 190 | 1.0 | 5.0 | 0.00 | 0.00 | 0.00 | 72 | 1008.8 |
| 20260509005544 | 71 | 0 | 2.0 | 5.0 | 0.00 | 0.00 | 0.00 | 71 | 1008.7 |
| 20260509005043 | 71 | 159 | 2.0 | 5.0 | 0.00 | 0.00 | 0.00 | 71 | 1008.6 |
| 20260509004558 | 71 | 168 | 2.0 | 5.0 | 0.00 | 0.00 | 0.00 | 70 | 1008.6 |
| 20260509004043 | 72 | 143 | 1.0 | 5.0 | 0.00 | 0.00 | 0.00 | 70 | 1008.6 |
| 20260509003541 | 72 | 110 | 2.0 | 5.0 | 0.00 | 0.00 | 0.00 | 70 | 1008.4 |
| 20260509003052 | 72 | 134 | 2.0 | 6.0 | 0.00 | 0.00 | 0.00 | 70 | 1008.4 |
| 20260509002540 | 73 | 127 | 2.0 | 6.0 | 0.00 | 0.00 | 0.00 | 68 | 1008.2 |
| 20260509002041 | 73 | 127 | 2.0 | 5.0 | 0.00 | 0.00 | 0.00 | 67 | 1008.3 |
| 20260509001551 | 74 | 116 | 2.0 | 6.0 | 0.00 | 0.00 | 0.00 | 65 | 1008.7 |
| 20260509001042 | 74 | 134 | 3.0 | 7.0 | 0.00 | 0.00 | 0.00 | 63 | 1008.6 |
| 20260509000541 | 75 | 107 | 2.0 | 7.0 | 0.00 | 0.00 | 0.00 | 61 | 1008.5 |